星链-1083 (STARLINK-1083 )

导读 | 星芒AI

STARLINK-1083 是 SpaceX Starlink 项目中的一颗低轨通信卫星,属于第 11 批(V1.5 版本)部署的星链卫星之一。该卫星于 2022 年 3 月 30 日由猎鹰 9 号火箭从肯尼迪航天中心发射升空,旨在为全球提供高速互联网服务。它运行在约 550 公里的轨道高度,设计寿命为 5 至 7 年,并配备先进的相控阵天线和激光通信系统,以提升网络连接效率和稳定性。

基本信息
目录编号:
44939
目录名称:
STARLINK-1083
国际标识:
2020-001AB
轨道中心:
EARTH
卫星名称:
星链-1083
卫星全名:
星链-1083 (STARLINK-1083 )
卫星状态:
已陨落 最后检测时间 2024-08-27
发射日期:
2020-01-07 UTC
国别 :
美国 (US)
星等 :
--
轨道信息
数据来源 国际轨道数据
星历时间: 2024-08-28T04:27:42+0800
轨道信息已过期432天
半长轴: 6568.542km
偏心率: 0.0003183
轨道倾角: 53.033°
近地点辐角 28.536°
升交点赤经 255.519°
平近点角 106.667°
近地点: 188.316km
远地点: 192.498km
周期: 88.300分钟
每日圈数: 16.307949
详细信息
固有亮度:
5
最大亮度:
2.5
卫星平台:
Starlink V1.0
覆盖范围:
全球
运营商:
太空探索技术公司
运营商所在国:
美国
制造商(研发单位):
太空探索技术公司
制造商所在国:
美国
使用方式:
暂无
卫星简介
星链(Starlink)计划是由太空探索技术公司(SpaceX)提出的一个巨型低轨卫星互联网星座项目,计划在2019年至2024年间在太空搭建由约1.2万颗卫星组成的“星链”网络,其中1584颗将部署在地球上空550千米处的近地轨道,并从2020年开始工作。该卫星仍在工作。